Probability
16 23 16 10 3 0 0 0 0 0 3 0 0 0 0 3 3 3 3 6 6 3 6 6 3 3 3 3 3 3 3 0 0 3 0 3 3 0 0 0 0 0 0 0
6 6 6 0 0 0 0 0 0 0 0 0 0 0 0 6 3 3 3 6 6 6 6 0 3 3 3 3 3 3 0 0 3 3 3 0 0 0 0 0 0 0 0 0
0 0 0 0 0 0 0 0 0 0 0 0 0 0 0 0 6 3 3 6 6 10 6 3 6 6 3 3 3 3 0 0 0 0 0 0 0 0 0 0 0 0 0 0
0 0 0 0 0 0 0 0 0 0 0 0 0 0 0 3 3 3 3 6 6 6 6 6 6 6 6 3 3 0 0 0 0 0 0 0 0 0 0 0 0 0 0 0
0 0 0 0 0 0 0 0 0 0 0 0 0 0 0 0 0 3 3 0 3 6 10 6 6 6 6 3 3 0 0 0 0 0 0 0 0 0 0 0 0 0 0 3
0 0 0 0 0 0 0 0 0 0 0 0 0 0 0 0 0 3 6 3 3 6 6 10 6 6 6 3 0 0 0 0 0 0 0 0 0 0 0 0 0 0 0 0
0 0 0 0 0 0 0 0 0 0 0 0 0 0 0 0 0 0 3 3 3 3 6 6 6 6 6 0 0 0 0 0 0 0 0 0 0 0 0 0 0 0 0 0
0 0 0 0 0 0 0 0 0 0 0 0 0 0 0 0 0 0 0 0 6 3 3 6 6 6 3 0 0 0 0 0 0 0 0 0 0 0 0 0 0 0 0 0
0 0 0 0 0 0 0 0 0 0 0 0 0 0 0 0 0 0 0 0 0 0 3 3 6 6 3 0 0 0 0 0 0 0 0 0 0 0 0 0 0 0 0 0
0 0 0 0 0 0 0 0 0 0 0 0 0 0 0 0 0 0 0 0 0 0 0 0 3 6 0 0 0 0 0 0 0 0 0 0 0 0 0 0 0 0 0 0
0 0 0 0 0 0 0 0 0 0 0 0 0 0 0 0 0 0 0 0 0 0 0 0 0 0 0 0 0 0 0 0 0 0 0 0 0 0 0 0 0 0 0 0
0 0 0 0 0 0 0 0 0 0 0 0 0 0 0 0 0 0 0 0 0 0 0 0 0 0 0 0 0 0 0 0 0 0 0 0 0 0 0 0 0 0 0 0
0 0 0 0 0 0 0 0 0 0 0 0 0 0 0 0 0 0 0 0 0 0 0 0 0 0 0 0 0 3 0 0 0 0 0 0 0 0 0 0 0 0 0 0
0 0 0 0 0 0 0 0 0 0 0 0 0 0 0 0 0 0 0 0 0 0 0 0 0 0 0 0 0 0 0 0 0 0 0 0 0 0 0 0 0 0 0 0
0 0 0 0 0 0 0 0 0 0 0 0 0 0 0 0 0 0 0 0 0 0 0 0 0 0 0 0 0 0 0 0 0 0 0 0 0 0 0 0 0 0 0 0
0 0 0 0 0 0 0 0 0 0 0 0 0 0 0 0 0 0 0 0 0 0 0 0 0 0 0 0 0 0 0 0 0 0 0 0 0 0 0 0 0 0 0 0
0 0 0 0 0 0 0 0 0 0 0 0 0 0 0 0 0 0 0 0 0 0 0 0 0 0 0 0 0 0 0 0 0 0 0 0 0 0 0 0 0 0 0 0
0 0 0 0 0 0 0 0 0 0 0 0 0 0 0 0 0 0 0 0 0 0 0 0 0 0 0 0 0 0 0 0 0 0 0 0 0 0 0 0 0 0 0 0
0 0 0 0 0 0 0 0 0 0 0 0 0 0 0 0 0 0 0 0 0 0 0 0 0 0 0 0 0 0 0 0 0 0 0 0 0 0 0 0 0 0 0 0
0 0 0 0 0 0 0 0 0 0 0 0 0 0 0 0 0 0 0 0 0 0 0 0 0 0 0 0 0 0 0 0 0 0 0 0 0 0 0 0 0 0 0 0
0 0 0 0 0 0 0 0 0 0 0 0 0 0 0 0 0 0 0 0 0 0 0 0 0 0 0 0 0 0 0 0 0 0 0 0 0 0 0 0 0 0 0 0
0 0 0 0 0 0 0 0 0 0 0 0 0 0 0 0 0 0 0 0 0 0 0 0 0 0 0 0 0 0 0 0 0 0 0 0 0 0 0 0 0 0 0 0
0 0 0 0 0 0 0 0 0 0 0 0 0 0 0 0 0 0 0 0 0 0 0 0 0 0 0 0 0 0 0 0 0 0 0 0 0 0 0 0 0 0 0 0
0 0 0 0 0 0 0 0 0 0 0 0 0 0 0 0 0 0 0 0 0 0 0 0 0 0 0 0 0 0 0 0 0 0 0 0 0 0 0 0 0 0 0 0
0 0 0 0 0 0 0 0 0 0 0 0 0 0 0 0 0 0 0 0 0 0 0 0 0 0 0 0 0 0 0 0 0 0 0 0 0 0 0 0 0 0 0 0
0 0 0 0 0 0 0 0 0 0 0 0 0 0 0 0 0 0 0 0 0 0 0 0 0 0 0 0 0 0 0 0 0 0 0 0 0 0 0 0 0 0 0 0
Height
5809 5813 5816 5818 5820 5824 5825 5828 5831 5832 5833 5835 5836 5837 5838 5839 5839 5841 5841 5842 5842 5842 5842 5842 5841 5841 5840 5839 5838 5837 5835 5833 5831 5828 5824 5821 5818 5814 5810 5806 5801 5797 5793 5789
5808 5811 5814 5816 5818 5821 5823 5826 5829 5830 5831 5833 5834 5836 5837 5837 5838 5839 5839 5840 5840 5840 5840 5840 5840 5839 5839 5838 5837 5836 5834 5832 5829 5826 5823 5820 5816 5812 5807 5803 5799 5795 5790 5786
5807 5810 5812 5814 5817 5819 5822 5824 5827 5828 5830 5831 5833 5835 5835 5836 5836 5837 5838 5838 5838 5839 5839 5839 5838 5838 5837 5837 5836 5834 5832 5830 5828 5825 5822 5818 5814 5810 5806 5802 5797 5793 5788 5783
5806 5808 5811 5813 5815 5818 5820 5823 5825 5827 5828 5829 5832 5833 5833 5833 5834 5835 5836 5837 5837 5837 5837 5837 5837 5836 5836 5835 5834 5833 5831 5829 5826 5823 5820 5817 5813 5809 5804 5800 5795 5791 5786 5781
5806 5808 5810 5812 5815 5817 5819 5822 5824 5826 5828 5829 5830 5832 5832 5831 5832 5833 5834 5835 5835 5835 5835 5835 5835 5835 5834 5834 5833 5831 5830 5827 5825 5822 5819 5815 5812 5807 5803 5798 5794 5789 5784 5780
5806 5808 5809 5811 5814 5816 5819 5822 5823 5825 5827 5828 5830 5831 5831 5830 5830 5831 5832 5833 5833 5834 5834 5834 5833 5833 5833 5832 5831 5830 5828 5826 5824 5821 5818 5814 5810 5806 5802 5797 5793 5788 5783 5779
5807 5809 5810 5812 5814 5816 5819 5821 5823 5824 5826 5827 5829 5830 5830 5829 5830 5831 5831 5831 5832 5832 5832 5832 5832 5831 5831 5830 5829 5828 5826 5825 5822 5819 5816 5813 5809 5805 5801 5796 5792 5787 5782 5777
5808 5810 5811 5812 5814 5816 5818 5820 5822 5824 5825 5826 5827 5828 5829 5829 5829 5830 5830 5830 5830 5830 5830 5830 5830 5830 5829 5829 5828 5826 5825 5823 5821 5818 5815 5812 5808 5804 5800 5796 5791 5786 5781 5777
5810 5811 5811 5813 5814 5816 5818 5819 5821 5823 5824 5825 5827 5828 5827 5827 5828 5828 5828 5828 5828 5828 5828 5828 5828 5828 5827 5827 5826 5825 5823 5822 5819 5817 5814 5811 5807 5804 5800 5795 5791 5786 5781 5776
5810 5811 5812 5813 5815 5817 5818 5820 5821 5822 5823 5825 5827 5827 5826 5825 5826 5826 5826 5826 5826 5826 5826 5826 5826 5826 5825 5825 5824 5823 5822 5820 5818 5815 5813 5810 5806 5803 5799 5795 5790 5786 5781 5776
5811 5812 5813 5814 5815 5816 5818 5819 5820 5821 5823 5824 5825 5827 5824 5825 5824 5824 5824 5823 5823 5823 5823 5824 5824 5823 5823 5823 5822 5821 5820 5818 5816 5814 5811 5808 5805 5802 5798 5794 5790 5786 5781 5777
5811 5812 5813 5814 5815 5816 5817 5818 5819 5821 5822 5823 5823 5826 5822 5822 5822 5822 5821 5821 5821 5821 5821 5821 5821 5821 5821 5820 5820 5819 5818 5816 5814 5812 5810 5807 5804 5801 5798 5794 5790 5786 5781 5777
5812 5812 5813 5813 5816 5816 5816 5817 5817 5819 5820 5820 5821 5824 5820 5819 5819 5819 5819 5818 5818 5818 5818 5818 5818 5818 5818 5818 5817 5817 5816 5814 5813 5810 5808 5806 5803 5800 5797 5793 5790 5786 5782 5777
5811 5812 5813 5814 5813 5813 5814 5815 5816 5817 5817 5818 5818 5819 5818 5817 5817 5816 5816 5815 5815 5815 5815 5815 5815 5816 5815 5815 5815 5814 5813 5812 5810 5808 5806 5804 5801 5799 5796 5792 5789 5785 5782 5778
5810 5811 5811 5811 5812 5812 5812 5813 5813 5814 5814 5815 5815 5815 5815 5814 5814 5813 5813 5812 5812 5812 5812 5812 5812 5812 5812 5812 5812 5811 5810 5809 5808 5806 5804 5802 5800 5797 5794 5791 5788 5785 5781 5778
5809 5809 5809 5810 5810 5810 5810 5810 5810 5811 5811 5811 5811 5811 5812 5811 5810 5810 5809 5809 5809 5808 5808 5808 5809 5809 5809 5809 5809 5808 5807 5806 5805 5804 5802 5800 5798 5795 5793 5790 5787 5784 5781 5777
5806 5806 5807 5807 5807 5807 5807 5808 5807 5807 5807 5807 5807 5808 5807 5807 5806 5806 5805 5805 5805 5805 5805 5805 5805 5805 5806 5806 5805 5805 5804 5803 5802 5801 5799 5798 5795 5793 5791 5788 5785 5783 5780 5777
5804 5803 5803 5803 5804 5804 5807 5804 5804 5803 5803 5803 5802 5802 5802 5802 5802 5801 5801 5801 5801 5801 5801 5801 5801 5801 5802 5802 5801 5801 5801 5800 5799 5798 5796 5795 5793 5791 5789 5786 5784 5781 5778 5776
5800 5800 5799 5799 5799 5799 5801 5800 5799 5798 5798 5797 5797 5797 5797 5797 5797 5796 5796 5796 5796 5796 5796 5797 5797 5797 5797 5797 5797 5797 5797 5796 5795 5794 5793 5792 5790 5788 5786 5784 5782 5779 5777 5774
5796 5795 5795 5795 5794 5794 5796 5794 5794 5794 5792 5791 5791 5792 5792 5792 5792 5792 5791 5791 5791 5791 5792 5792 5792 5792 5792 5792 5792 5792 5792 5792 5791 5790 5789 5788 5787 5785 5783 5781 5779 5777 5775 5772
5790 5790 5790 5789 5788 5789 5788 5788 5789 5789 5787 5785 5785 5785 5785 5786 5786 5786 5785 5785 5786 5786 5786 5787 5787 5787 5787 5787 5787 5787 5787 5787 5787 5786 5785 5784 5783 5782 5780 5778 5776 5774 5772 5770
5784 5784 5783 5782 5782 5784 5782 5781 5782 5781 5779 5778 5779 5779 5779 5779 5779 5779 5780 5780 5780 5780 5780 5781 5781 5781 5782 5782 5782 5782 5782 5782 5782 5781 5781 5780 5779 5778 5776 5775 5773 5771 5769 5767
5777 5777 5776 5776 5776 5775 5773 5773 5773 5772 5772 5771 5771 5772 5772 5771 5772 5772 5773 5773 5773 5774 5774 5774 5775 5775 5775 5776 5776 5776 5776 5776 5776 5776 5776 5775 5774 5773 5772 5771 5769 5767 5766 5764
5768 5767 5766 5766 5766 5766 5764 5764 5764 5764 5763 5763 5763 5763 5763 5763 5764 5764 5765 5766 5766 5767 5767 5768 5768 5768 5769 5769 5769 5770 5770 5770 5770 5770 5770 5770 5769 5768 5767 5766 5765 5763 5762 5760
5758 5757 5756 5755 5756 5755 5755 5754 5754 5753 5753 5753 5753 5754 5754 5754 5755 5755 5756 5757 5758 5759 5759 5760 5761 5761 5761 5762 5762 5763 5763 5764 5764 5764 5764 5764 5763 5763 5762 5761 5760 5759 5757 5756
5747 5745 5744 5744 5745 5743 5743 5743 5743 5742 5742 5743 5743 5744 5744 5744 5745 5746 5747 5748 5749 5750 5751 5751 5752 5753 5754 5754 5755 5755 5756 5756 5757 5757 5757 5757 5757 5756 5756 5755 5754 5753 5752 5751
Wind_Speed
12 14 14 14 15 16 15 14 13 12 13 12 12 12 11 12 10 9 9 9 9 8 7 7 7 8 9 10 11 12 14 15 17 18 19 20 20 20 21 21 22 22 22 21
10 11 12 14 15 15 15 14 15 14 13 11 10 10 10 10 10 9 9 9 9 9 8 7 8 8 9 10 11 12 13 15 16 17 19 20 20 21 21 21 22 22 22 21
8 8 11 13 15 15 14 14 14 13 12 11 9 8 8 8 9 9 8 9 9 9 9 8 8 8 9 10 11 12 13 14 15 17 19 20 21 21 21 21 22 22 22 22
7 9 12 13 14 13 13 12 13 12 11 9 8 7 9 8 9 8 8 8 9 9 9 8 8 8 9 9 10 12 13 14 15 17 18 20 21 21 21 22 22 22 22 21
7 8 10 11 12 13 13 11 11 10 9 7 6 6 9 10 10 8 7 8 8 9 9 8 8 8 9 9 10 12 13 14 16 17 18 20 21 21 22 22 22 22 21 21
6 7 8 9 10 11 10 9 9 6 5 5 5 6 8 10 11 8 8 9 9 9 9 8 8 9 9 9 10 11 13 14 15 17 18 19 20 21 22 21 22 22 21 21
2 4 5 7 8 9 8 8 7 5 3 3 4 7 9 11 10 10 9 9 9 9 9 9 8 9 9 9 10 11 12 14 15 16 18 19 20 21 21 22 22 22 22 21
0 2 4 5 7 7 8 7 7 5 3 3 4 6 10 10 9 11 11 10 10 10 10 9 9 9 9 9 10 11 12 14 15 16 17 18 20 21 22 22 22 22 22 21
1 1 3 4 6 7 7 7 6 4 3 2 2 7 11 10 10 11 11 11 11 11 10 10 9 9 9 9 10 11 12 13 15 16 17 18 19 20 21 22 22 22 22 22
1 1 2 3 5 6 7 7 7 5 4 2 3 6 11 12 10 10 11 11 11 11 11 10 10 10 10 10 10 11 12 13 15 16 17 18 19 20 21 21 22 22 22 22
2 1 2 3 4 5 6 6 7 6 5 4 4 7 12 14 13 12 12 12 12 12 12 11 11 11 10 10 11 11 12 13 14 16 16 17 18 19 20 20 21 22 22 22
2 1 1 2 3 5 6 8 8 9 7 7 7 10 13 15 13 13 13 13 13 12 12 12 12 11 11 11 11 11 12 13 14 15 16 17 18 18 19 20 20 21 21 21
2 3 2 3 4 5 7 9 9 10 9 8 9 10 13 15 15 14 13 13 13 13 13 13 13 12 12 12 12 12 12 13 14 15 16 16 17 18 18 19 19 20 21 21
4 4 4 4 6 8 9 9 10 11 11 10 11 13 14 15 16 16 15 15 15 14 14 14 13 13 13 12 12 12 13 13 14 15 16 16 17 17 18 18 19 19 20 20
5 6 7 7 8 10 11 11 12 12 13 14 14 15 15 16 17 17 17 16 16 15 15 14 14 13 13 13 13 13 13 13 14 15 15 16 16 17 18 18 18 18 19 19
8 8 8 9 10 11 12 12 13 14 14 15 17 17 17 19 18 18 18 17 17 16 16 15 15 14 14 14 14 14 14 14 14 15 15 16 16 17 17 17 18 18 18 18
10 11 11 10 11 13 13 13 14 15 16 17 19 19 19 19 19 19 19 18 17 17 16 16 16 15 15 15 15 15 14 14 14 15 15 15 16 16 17 17 17 17 17 17
13 13 13 13 13 14 13 15 16 17 17 18 19 19 19 20 20 20 19 19 18 17 17 17 17 17 17 16 16 16 15 15 15 15 15 15 16 16 16 17 17 17 17 17
16 16 16 16 16 17 16 17 18 18 19 19 20 20 20 21 21 20 20 20 19 18 18 18 18 18 18 18 18 17 16 16 16 15 15 15 15 16 16 16 17 17 17 17
18 18 19 19 19 20 19 19 19 19 21 21 21 21 21 21 21 21 21 20 20 19 19 19 19 19 19 18 18 18 17 17 17 16 16 16 16 16 16 16 16 17 17 17
21 21 21 22 22 21 22 22 22 22 23 23 23 23 22 22 22 22 22 21 21 20 20 20 20 20 20 19 19 19 18 18 17 17 17 16 16 16 16 16 17 17 17 17
25 25 24 24 24 24 24 25 25 26 26 27 26 25 25 25 24 24 23 22 22 22 21 21 21 21 20 20 20 19 19 18 18 18 17 17 17 17 17 17 17 17 17 17
28 28 28 28 27 27 28 28 28 29 29 29 29 28 28 27 27 26 25 24 24 23 23 23 23 22 22 21 21 20 20 19 19 19 18 18 18 18 18 17 17 17 17 16
31 31 32 31 30 30 32 32 32 31 32 32 31 31 30 30 29 29 28 27 26 25 25 24 24 23 23 23 22 22 21 21 20 20 20 19 19 19 19 18 18 18 17 17
34 34 34 34 33 34 34 35 35 35 36 35 34 33 32 32 32 31 30 29 28 27 27 26 26 25 24 24 24 23 23 23 22 22 21 21 20 20 20 20 19 19 19 18
36 36 37 37 36 38 37 37 37 38 38 37 36 36 35 35 34 34 33 32 31 30 29 29 28 27 27 26 25 25 25 24 24 24 23 22 22 21 21 21 21 20 20 20
Wind_Direction
228 227 224 228 229 231 232 232 239 250 253 260 261 265 271 273 270 264 272 281 285 284 284 290 297 304 309 315 321 326 330 334 337 340 341 339 338 337 338 337 337 336 335 333
221 219 217 218 222 230 231 232 234 243 251 261 267 272 273 274 271 266 271 277 280 281 281 287 292 299 307 313 318 325 330 334 337 340 341 341 341 340 340 340 340 339 338 337
213 214 215 219 224 231 230 231 234 242 252 262 269 271 274 268 267 265 266 272 280 284 282 282 287 296 303 310 316 323 329 334 336 339 342 343 344 344 343 342 341 341 340 339
205 213 215 220 223 230 227 228 234 241 253 265 265 272 278 278 274 268 266 271 276 279 281 282 285 293 300 306 313 321 328 332 336 339 341 344 345 346 345 344 343 343 343 342
207 212 217 221 220 222 223 225 235 243 253 263 265 266 278 288 284 268 267 272 274 277 280 283 286 290 297 305 313 321 326 330 334 338 341 344 345 346 347 347 347 347 346 346
201 211 215 217 222 223 220 222 231 238 241 255 255 257 267 275 278 275 271 276 276 277 277 280 284 288 295 303 311 319 325 329 334 338 341 343 345 346 348 348 349 350 349 348
210 222 224 224 217 215 213 220 220 220 227 244 259 264 257 264 271 278 278 275 277 275 276 277 281 286 293 301 309 317 323 329 334 337 341 343 345 347 348 349 350 350 350 349
269 234 223 219 221 209 212 220 218 221 227 244 266 266 265 276 276 276 277 277 278 277 276 276 278 285 292 299 307 316 322 328 333 337 340 342 345 348 350 351 352 352 352 353
59 267 244 233 226 221 225 219 218 227 241 259 247 277 290 282 274 271 271 274 274 273 274 276 277 283 290 298 306 314 321 327 331 335 339 341 344 348 350 352 353 355 355 356
114 226 244 237 235 230 230 227 224 228 242 223 218 257 274 295 291 278 276 276 273 272 274 274 276 282 289 296 303 310 318 325 329 333 337 340 344 346 349 352 354 356 357 358
258 221 242 252 245 233 226 224 228 230 234 233 251 253 275 291 293 287 282 281 280 275 273 272 272 277 285 293 300 306 315 322 327 331 334 338 341 344 348 351 353 356 358 0
258 254 227 274 270 260 243 233 231 239 233 241 262 275 281 290 290 288 283 281 282 277 273 272 272 275 282 289 296 303 311 319 324 328 331 336 339 342 345 349 352 355 357 359
277 273 262 258 273 275 262 251 243 242 241 248 262 276 281 289 292 289 285 282 281 279 275 272 271 274 281 287 293 299 308 315 322 325 328 332 337 340 343 347 350 354 356 358
274 277 271 257 273 275 270 265 255 249 249 253 255 262 273 279 284 287 288 286 282 280 277 274 271 273 279 284 290 297 304 311 317 322 326 330 334 337 340 344 347 351 353 356
280 271 269 265 275 277 276 272 266 259 256 257 259 261 268 273 279 283 285 285 283 280 277 274 272 274 278 282 287 293 299 306 313 318 322 327 331 334 338 342 345 348 351 354
288 278 270 269 274 277 278 277 274 270 265 262 263 266 269 272 276 280 282 283 283 280 277 273 272 273 276 280 284 289 295 301 308 313 318 323 327 331 334 338 341 344 347 350
291 284 279 275 274 278 280 280 281 279 274 271 269 271 272 275 276 276 277 280 281 279 277 274 273 273 274 277 281 285 291 297 302 308 313 318 322 327 330 334 336 339 342 344
291 287 283 281 278 278 281 281 281 280 276 274 272 271 272 274 276 276 276 277 277 276 274 273 273 273 274 276 279 282 287 292 297 302 307 312 317 321 325 329 332 335 338 340
290 286 283 281 278 279 280 281 282 282 277 276 275 273 272 274 275 273 274 275 276 274 272 272 273 274 274 276 278 280 283 288 292 297 302 307 311 315 319 324 328 331 333 335
290 287 284 281 279 279 280 278 278 278 277 278 278 277 275 274 273 272 273 273 274 273 272 271 271 272 273 275 276 278 281 284 288 292 297 301 306 310 314 318 323 326 329 331
287 286 284 281 279 277 277 276 276 273 275 277 277 277 275 272 271 270 271 272 271 271 270 270 270 270 270 271 273 276 279 282 284 287 292 296 300 305 309 313 317 321 324 326
283 283 282 280 277 274 276 274 272 274 275 275 276 276 275 273 271 270 270 270 269 269 268 268 268 268 268 269 270 272 275 278 280 283 287 291 295 300 304 308 312 315 318 322
278 278 277 276 276 276 273 271 271 271 273 274 274 273 273 272 271 270 269 269 268 268 268 267 267 267 267 267 267 269 271 274 276 279 282 286 291 295 299 304 307 310 313 316
276 275 274 273 273 271 271 270 269 269 269 269 270 269 268 268 269 269 268 268 266 266 266 266 266 266 265 265 266 267 268 271 273 275 279 282 286 290 294 298 302 305 308 310
276 275 273 272 271 270 268 269 269 268 268 268 268 268 268 267 267 266 266 266 265 264 264 264 265 265 264 264 264 265 266 268 270 273 276 279 282 285 289 292 296 300 303 304
275 273 272 271 270 270 270 269 270 270 271 271 270 268 267 267 266 265 264 264 264 262 261 262 262 263 263 263 263 263 264 266 267 270 273 275 278 281 284 288 291 294 298 300